Location: DARK SKY Beskydy - Park tmavé oblohy, www.darkskybeskydy.cz
(49.4926°N, 18.5016°E)
Time: 10:32:50
(UTC+02:00)

Transit 2A Rocket - All Passes

Search period start: 21 July 2024 00:00
Search period end: 31 July 2024 00:00
Orbit: 582 x 910 km, 66.7° (Epoch: 20 July)

Date Brightness Start Highest point End Pass type
(mag) Time Alt. Az. Time Alt. Az. Time Alt. Az.
21 Jul - 13:45:15 10° SSW 13:50:32 54° ESE 13:56:17 10° NE daylight
21 Jul - 15:28:07 10° WSW 15:33:20 38° NW 15:38:55 10° NNE daylight
21 Jul - 17:13:46 10° NW 17:17:36 17° NNW 17:21:32 10° NNE daylight
21 Jul - 18:58:55 10° NNW 19:02:34 16° N 19:06:16 10° NE daylight
21 Jul - 20:41:41 10° NNW 20:47:04 31° NE 20:52:23 10° E daylight
21 Jul - 22:24:07 10° NW 22:30:15 78° WSW 22:36:10 10° SSE visible
22 Jul - 00:08:16 10° WNW 00:11:51 16° WSW 00:15:21 10° SW visible
22 Jul - 13:01:47 10° S 13:06:38 34° ESE 13:11:49 10° NE daylight
22 Jul - 14:43:29 10° SW 14:48:56 55° NW 14:54:49 10° NNE daylight
22 Jul - 16:28:33 10° WNW 16:32:50 21° NNW 16:37:15 10° NNE daylight
22 Jul - 18:14:19 10° NNW 18:17:43 15° N 18:21:09 10° NE daylight
22 Jul - 19:57:34 10° NNW 20:02:28 24° NNE 20:07:19 10° E daylight
22 Jul - 21:39:56 10° NW 21:46:04 72° NE 21:52:00 10° SE visible
22 Jul - 23:23:11 10° NW 23:28:07 26° WSW 23:32:55 10° SSW visible
23 Jul - 12:18:52 10° SSE 12:22:51 21° ESE 12:27:03 10° ENE daylight
23 Jul - 13:59:08 10° SW 14:04:39 81° NW 14:10:40 10° NE daylight
23 Jul - 15:43:24 10° W 15:48:08 26° NNW 15:53:06 10° NNE daylight
23 Jul - 17:29:25 10° NW 17:32:50 15° N 17:36:18 10° NNE daylight
23 Jul - 19:13:23 10° NNW 19:17:45 20° NNE 19:22:06 10° ENE daylight
23 Jul - 20:55:49 10° NNW 21:01:45 49° NE 21:07:32 10° ESE daylight
23 Jul - 22:38:36 10° NW 22:44:16 41° WSW 22:49:44 10° S visible
24 Jul - 11:37:05 10° ESE 11:39:12 12° E 11:41:22 10° ENE daylight
24 Jul - 13:15:05 10° SSW 13:20:32 67° ESE 13:26:26 10° NE daylight
24 Jul - 14:58:26 10° W 15:03:33 33° NW 15:08:58 10° NNE daylight
24 Jul - 16:44:17 10° NW 16:47:58 16° NNW 16:51:43 10° NNE daylight
24 Jul - 18:29:05 10° NNW 18:32:57 17° NNE 18:36:50 10° NE daylight
24 Jul - 20:11:43 10° NNW 20:17:18 36° NE 20:22:48 10° ESE daylight
24 Jul - 21:54:14 10° NW 22:00:16 65° WSW 22:06:06 10° SSE visible
24 Jul - 23:39:12 10° WNW 23:41:40 13° W 23:44:05 10° SW visible
25 Jul - 12:31:25 10° S 12:36:32 42° ESE 12:42:03 10° NE daylight
25 Jul - 14:13:40 10° WSW 14:19:04 46° NW 14:24:52 10° NNE daylight
25 Jul - 15:59:03 10° WNW 16:03:09 19° NNW 16:07:22 10° NNE daylight
25 Jul - 17:44:35 10° NNW 17:48:05 16° N 17:51:38 10° NE daylight
25 Jul - 19:27:36 10° NNW 19:32:44 27° NNE 19:37:49 10° E daylight
25 Jul - 21:09:59 10° NW 21:16:09 85° NE 21:22:04 10° SE visible
25 Jul - 22:53:35 10° WNW 22:57:59 21° WSW 23:02:16 10° SSW visible
26 Jul - 11:48:12 10° SSE 11:52:42 26° ESE 11:57:28 10° NE daylight
26 Jul - 13:29:11 10° SW 13:34:44 68° NW 13:40:44 10° NNE daylight
26 Jul - 15:13:51 10° WNW 15:18:24 23° NNW 15:23:09 10° NNE daylight
26 Jul - 16:59:49 10° NW 17:03:12 15° N 17:06:38 10° NNE daylight
26 Jul - 18:43:27 10° NNW 18:48:03 22° NNE 18:52:38 10° ENE daylight
26 Jul - 20:25:50 10° NNW 20:31:52 58° NE 20:37:44 10° SE daylight
26 Jul - 22:08:49 10° NW 22:14:11 34° WSW 22:19:23 10° S visible
27 Jul - 11:05:44 10° SE 11:08:58 16° ESE 11:12:21 10° ENE daylight
27 Jul - 12:44:59 10° SSW 12:50:32 82° ESE 12:56:32 10° NE daylight
27 Jul - 14:28:46 10° W 14:33:46 29° NNW 14:39:00 10° NNE daylight
27 Jul - 16:14:46 10° NW 16:18:19 16° N 16:21:56 10° NNE daylight
27 Jul - 17:59:12 10° NNW 18:03:17 18° NNE 18:07:22 10° ENE daylight
27 Jul - 19:41:43 10° NNW 19:47:29 41° NE 19:53:06 10° ESE daylight
27 Jul - 21:24:20 10° NW 21:30:15 53° WSW 21:35:55 10° SSE visible
28 Jul - 12:01:08 10° SSW 12:06:28 52° ESE 12:12:13 10° NE daylight
28 Jul - 13:43:54 10° WSW 13:49:13 40° NW 13:54:53 10° NNE daylight
28 Jul - 15:29:33 10° WNW 15:33:28 18° NNW 15:37:28 10° NNE daylight
28 Jul - 17:14:47 10° NNW 17:18:26 16° N 17:22:06 10° NE daylight
28 Jul - 18:57:36 10° NNW 19:02:58 31° NE 19:08:13 10° E daylight
28 Jul - 20:40:03 10° NW 20:46:11 81° SW 20:52:03 10° SSE daylight
28 Jul - 22:24:07 10° WNW 22:27:48 17° WSW 22:31:24 10° SW visible
29 Jul - 11:17:41 10° S 11:22:33 33° ESE 11:27:45 10° NE daylight
29 Jul - 12:59:17 10° SW 13:04:49 57° NW 13:10:45 10° NNE daylight
29 Jul - 14:44:18 10° WNW 14:48:41 21° NNW 14:53:12 10° NNE daylight
29 Jul - 16:30:08 10° NNW 16:33:33 15° N 16:37:00 10° NE daylight
29 Jul - 18:13:28 10° NNW 18:18:19 24° NNE 18:23:08 10° E daylight
29 Jul - 19:55:51 10° NNW 20:01:58 69° NE 20:07:51 10° SE daylight
29 Jul - 21:39:04 10° NW 21:44:04 27° WSW 21:48:51 10° SSW visible
30 Jul - 10:34:48 10° SSE 10:38:46 20° ESE 10:42:55 10° ENE daylight
30 Jul - 12:14:56 10° SW 12:20:32 84° NW 12:26:35 10° NE daylight
30 Jul - 13:59:09 10° W 14:03:59 26° NNW 14:09:01 10° NNE daylight
30 Jul - 15:45:11 10° NW 15:48:39 15° N 15:52:09 10° NNE daylight
30 Jul - 17:29:16 10° NNW 17:33:35 20° NNE 17:37:53 10° ENE daylight
30 Jul - 19:11:43 10° NNW 19:17:37 48° NE 19:23:21 10° ESE daylight
30 Jul - 20:54:28 10° NW 21:00:11 43° WSW 21:05:38 10° S visible
